Location: Rometta
(44.2000°N, 10.0500°E)
Time: 17:03:08
(UTC+00:00)

AQUARIUS - Pass Details

Date: 20 January 2021
Orbit: 650 x 652 km, 98.0° (Epoch: 28 February)

Event Time Altitude Azimuth Distance (km) Brightness Sun altitude
Rises 16:41:09 0° 162° (SSE) 2,959 7.6 -5.3°
Reaches altitude 10° 16:43:21 10° 162° (SSE) 2,053 6.8 -5.7°
Maximum altitude 16:47:50 81° 75° (ENE) 667 4.1 -6.4°
Drops below altitude 10° 16:52:21 10° 349° (N) 2,069 6.7 -7.2°
Sets 16:54:34 0° 348° (NNW) 2,985 7.5 -7.6°
